CW7204 Weather Reports


time (UTC)temp
C
wind
direction
speed
KPH
gust
KPH
rain 1hr
cm
rain 24hr
cm
rain mn
cm
humidity
%
barometer
mb
20191019141412 13 135 0.0 11.3 0.03 0.05 0.05 95 1004.2
20191019140412 13 0 0.0 9.7 0.03 0.05 0.05 95 1004.2
20191019134412 12 180 0.0 1.6 0.03 0.30 0.05 96 1004.5
20191019133411 12 0 0.0 9.7 0.03 0.30 0.05 94 1004.5
20191019131411 13 180 1.6 9.7 0.00 0.28 0.03 92 1004.6
20191019130411 13 0 0.0 9.7 0.00 0.28 0.03 90 1004.6
20191019124411 13 0 0.0 0.0 0.00 0.28 0.03 90 1004.7
20191019123416 13 0 0.0 9.7 0.00 0.28 0.03 90 1004.7
20191019122415 13 0 0.0 11.3 0.00 0.28 0.03 91 1004.6
20191019113415 13 202 1.6 14.5 0.00 0.28 0.03 81 1004.9
20191019112415 13 202 4.8 16.1 0.00 0.28 0.03 80 1005.0
20191019110414 13 202 6.4 14.5 0.00 0.28 0.03 79 1005.1
20191019105414 13 180 3.2 20.9 0.00 0.28 0.03 81 1005.1
20191019104414 12 157 6.4 16.1 0.00 0.28 0.03 83 1005.3
20191019102414 12 180 1.6 19.3 0.03 0.28 0.03 85 1005.6
20191019101414 12 180 3.2 14.5 0.03 0.28 0.03 85 1005.5
20191019100414 12 0 0.0 11.3 0.03 0.28 0.03 85 1005.5
20191019095413 12 0 0.0 11.3 0.03 0.28 0.03 85 1005.4
20191019092414 11 202 4.8 17.7 0.00 0.25 0.00 83 1005.1
20191019091413 11 202 1.6 16.1 0.00 0.25 0.00 85 1005.1
20191019084412 11 180 0.0 9.7 0.00 0.25 0.00 87 1005.1
20191019083412 11 180 1.6 12.9 0.00 0.25 0.00 86 1005.1
20191019082412 11 135 0.0 14.5 0.00 0.25 0.00 86 1005.0
20191019080412 10 180 3.2 12.9 0.00 0.25 0.00 87 1005.1
20191019072411 9 180 3.2 17.7 0.00 0.25 0.00 92 1005.3
20191019065414 8 180 1.6 14.5 0.00 0.25 0.00 92 1005.4
20191019064413 8 180 1.6 11.3 0.00 0.25 0.00 92 1005.3
20191019063413 8 202 1.6 16.1 0.00 0.25 0.00 92 1005.3
20191019060413 8 202 1.6 12.9 0.00 0.25 0.00 92 1005.6
20191019055413 8 157 3.2 9.7 0.00 0.25 0.00 92 1005.6
20191019053412 8 202 3.2 16.1 0.00 0.25 0.00 92 1005.6
20191019045412 8 180 1.6 14.5 0.00 0.25 0.00 91 1005.6
20191019044412 8 180 1.6 9.7 0.00 0.25 0.00 91 1005.6
20191019042412 8 157 0.0 1.6 0.00 0.25 0.00 91 1005.6
20191019040411 8 0 0.0 12.9 0.00 0.25 0.00 90 1005.6
20191019035411 8 180 4.8 11.3 0.00 0.25 0.00 90 1005.6
20191019033416 8 180 1.6 9.7 0.00 0.25 0.00 90 1005.6
20191019032415 9 0 0.0 12.9 0.00 0.25 0.00 90 1005.6
20191019025415 9 202 1.6 17.7 0.00 0.28 0.00 89 1005.6
20191019024415 9 202 1.6 16.1 0.00 0.28 0.00 89 1005.6
20191019022414 9 180 1.6 17.7 0.00 0.28 0.00 89 1005.6
20191019021414 9 180 1.6 16.1 0.00 0.28 0.00 89 1005.6
20191019020414 9 202 1.6 17.7 0.00 0.28 0.00 89 1005.6
20191019010413 9 202 3.2 22.5 0.00 0.28 0.00 88 1005.4
20191019004414 10 202 0.0 19.3 0.00 0.33 0.00 88 1005.4
20191019002414 10 202 1.6 16.1 0.00 0.33 0.00 88 1005.5
20191019001413 10 180 0.0 9.7 0.00 0.33 0.00 88 1005.4
20191018235413 10 225 3.2 17.7 0.00 0.33 0.00 88 1005.5
20191018234412 10 202 4.8 16.1 0.00 0.33 0.00 88 1005.2
20191018225412 10 202 1.6 20.9 0.00 0.33 0.00 89 1005.1
20191018224412 10 202 3.2 20.9 0.00 0.33 0.00 89 1005.2
20191018223412 10 202 4.8 22.5 0.00 0.33 0.00 89 1005.2
20191018222411 10 225 4.8 22.5 0.00 0.33 0.00 89 1005.1
20191018221411 10 180 6.4 25.7 0.00 0.33 0.00 89 1005.1
20191018220411 10 202 0.0 17.7 0.00 0.33 0.00 89 1005.1
20191018215411 10 202 11.3 20.9 0.00 0.46 0.46 89 1005.1
20191018213411 10 202 3.2 16.1 0.00 0.46 0.46 89 1005.0
20191018212415 10 202 6.4 19.3 0.00 0.46 0.46 90 1005.0
20191018205415 10 225 9.7 22.5 0.00 0.51 0.46 90 1004.9
20191018203415 10 180 11.3 19.3 0.00 0.51 0.46 90 1004.6
20191018202415 10 180 3.2 19.3 0.00 0.51 0.46 89 1004.6
20191018200415 10 202 9.7 25.7 0.00 0.51 0.46 89 1004.5
20191018195414 10 202 9.7 20.9 0.00 0.51 0.46 89 1004.3
20191018194414 10 202 1.6 22.5 0.00 0.51 0.46 89 1004.2
20191018192414 10 180 4.8 19.3 0.00 0.51 0.46 89 1004.0
20191018183413 11 202 3.2 17.7 0.00 0.51 0.46 89 1003.7
20191018182413 11 202 3.2 29.0 0.00 0.51 0.46 89 1003.6
20191018175412 11 202 6.4 27.4 0.00 0.51 0.46 91 1003.5
20191018174412 11 202 9.7 25.7 0.00 0.51 0.46 92 1003.4
20191018173412 11 225 3.2 22.5 0.00 0.51 0.46 93 1003.4
20191018171412 11 225 1.6 9.7 0.00 0.51 0.46 93 1003.0
20191018162411 11 225 3.2 22.5 0.00 0.51 0.46 94 1002.0
20191018160413 11 247 6.4 20.9 0.00 0.51 0.46 94 1002.5
20191018155413 11 180 3.2 25.7 0.00 0.51 0.46 94 1002.3
20191018153413 11 225 3.2 11.3 0.00 0.51 0.46 94 1001.0
20191018152413 11 225 6.4 27.4 0.23 0.51 0.46 95 1001.9
20191018151413 11 202 4.8 20.9 0.25 0.51 0.46 95 1001.5
20191018150413 11 157 1.6 19.3 0.25 0.51 0.46 95 1001.5
20191018145412 11 202 1.6 22.5 0.25 0.51 0.46 95 1001.6